TimeEST,TemperatureF,Dew PointF,Humidity,Sea Level PressureIn,VisibilityMPH,Wind Direction,Wind SpeedMPH,Gust SpeedMPH,PrecipitationIn,Events,Conditions,WindDirDegrees,DateUTC
12:35 AM,57.2,39.0,51,30.24,10.0,South,13.8,24.2,N/A,,Clear,170,2012-11-12 05:35:00
12:55 AM,57.7,39.2,50,30.25,10.0,South,10.4,20.7,N/A,,Clear,180,2012-11-12 05:55:00
1:35 AM,57.2,38.1,49,30.25,10.0,South,9.2,23.0,N/A,,Clear,180,2012-11-12 06:35:00
1:55 AM,57.9,38.1,48,30.25,10.0,South,12.7,23.0,N/A,,Clear,190,2012-11-12 06:55:00
2:15 AM,56.8,37.4,48,30.25,10.0,South,12.7,23.0,N/A,,Clear,180,2012-11-12 07:15:00
2:55 AM,57.9,37.4,46,30.24,10.0,South,12.7,26.5,N/A,,Clear,180,2012-11-12 07:55:00
3:15 AM,58.1,37.6,46,30.23,10.0,South,13.8,25.3,N/A,,Clear,180,2012-11-12 08:15:00
3:35 AM,58.1,37.8,47,30.23,10.0,South,12.7,20.7,N/A,,Clear,180,2012-11-12 08:35:00
3:55 AM,58.1,38.5,48,30.23,10.0,South,13.8,23.0,N/A,,Clear,170,2012-11-12 08:55:00
4:15 AM,58.1,38.5,48,30.23,10.0,South,11.5,21.9,N/A,,Clear,170,2012-11-12 09:15:00
4:35 AM,57.7,38.3,48,30.23,10.0,South,12.7,23.0,N/A,,Clear,180,2012-11-12 09:35:00
4:55 AM,57.9,37.8,47,30.23,10.0,South,12.7,23.0,N/A,,Clear,180,2012-11-12 09:55:00
5:15 AM,58.1,37.0,45,30.23,10.0,South,11.5,23.0,N/A,,Clear,180,2012-11-12 10:15:00
5:35 AM,58.1,36.5,44,30.23,10.0,South,15.0,23.0,N/A,,Clear,180,2012-11-12 10:35:00
5:55 AM,58.1,36.1,44,30.22,10.0,South,13.8,23.0,N/A,,Clear,180,2012-11-12 10:55:00
6:15 AM,58.1,35.6,43,30.22,10.0,South,12.7,26.5,N/A,,Clear,180,2012-11-12 11:15:00
6:35 AM,58.1,36.0,44,30.22,10.0,South,16.1,26.5,N/A,,Clear,180,2012-11-12 11:35:00
6:55 AM,58.1,35.8,43,30.22,10.0,South,13.8,25.3,N/A,,Clear,170,2012-11-12 11:55:00
7:15 AM,58.1,36.5,44,30.22,10.0,South,16.1,26.5,N/A,,Clear,170,2012-11-12 12:15:00
7:35 AM,58.1,36.7,45,30.22,10.0,South,12.7,31.1,N/A,,Clear,180,2012-11-12 12:35:00
7:55 AM,57.9,37.2,46,30.22,10.0,South,17.3,26.5,N/A,,Clear,170,2012-11-12 12:55:00
8:15 AM,58.8,37.2,45,30.22,10.0,South,17.3,24.2,N/A,,Clear,170,2012-11-12 13:15:00
8:35 AM,59.2,37.4,44,30.22,10.0,South,17.3,27.6,N/A,,Clear,180,2012-11-12 13:35:00
8:55 AM,59.9,37.6,44,30.22,10.0,South,12.7,25.3,N/A,,Clear,180,2012-11-12 13:55:00
9:15 AM,60.6,37.8,43,30.22,10.0,South,10.4,23.0,N/A,,Clear,190,2012-11-12 14:15:00
9:35 AM,61.9,38.5,42,30.22,10.0,SSW,12.7,23.0,N/A,,Clear,200,2012-11-12 14:35:00
9:55 AM,61.9,38.7,42,30.22,10.0,South,13.8,23.0,N/A,,Clear,190,2012-11-12 14:55:00
10:15 AM,61.7,39.2,43,30.22,10.0,South,13.8,23.0,N/A,,Clear,190,2012-11-12 15:15:00
10:35 AM,60.6,38.5,44,30.21,10.0,South,11.5,20.7,N/A,,Clear,190,2012-11-12 15:35:00
10:55 AM,61.9,39.2,43,30.21,10.0,South,15.0,24.2,N/A,,Clear,180,2012-11-12 15:55:00
11:15 AM,61.9,39.4,43,30.20,10.0,South,13.8,25.3,N/A,,Clear,180,2012-11-12 16:15:00
11:35 AM,61.9,39.7,44,30.19,10.0,South,11.5,24.2,N/A,,Clear,180,2012-11-12 16:35:00
11:55 AM,64.4,40.8,42,30.18,10.0,South,13.8,23.0,N/A,,Clear,190,2012-11-12 16:55:00
12:15 PM,64.4,41.0,42,30.18,10.0,South,11.5,23.0,N/A,,Clear,190,2012-11-12 17:15:00
12:35 PM,66.2,41.9,41,30.17,10.0,South,12.7,21.9,N/A,,Clear,170,2012-11-12 17:35:00
12:55 PM,67.1,42.4,41,30.17,10.0,South,10.4,19.6,N/A,,Clear,170,2012-11-12 17:55:00
1:15 PM,67.1,40.8,38,30.16,10.0,South,12.7,21.9,N/A,,Clear,180,2012-11-12 18:15:00
1:35 PM,67.1,40.8,38,30.15,10.0,South,13.8,21.9,N/A,,Clear,170,2012-11-12 18:35:00
1:55 PM,67.8,40.8,37,30.14,10.0,South,12.7,23.0,N/A,,Clear,170,2012-11-12 18:55:00
2:15 PM,68.0,41.0,37,30.13,10.0,South,10.4,23.0,N/A,,Clear,170,2012-11-12 19:15:00
2:35 PM,68.7,41.4,37,30.12,10.0,South,13.8,23.0,N/A,,Clear,180,2012-11-12 19:35:00
3:15 PM,69.4,41.4,36,30.10,10.0,South,18.4,31.1,N/A,,Clear,170,2012-11-12 20:15:00
3:35 PM,68.4,40.8,37,30.09,10.0,South,12.7,28.8,N/A,,Clear,180,2012-11-12 20:35:00
3:55 PM,67.1,40.5,38,30.09,10.0,South,12.7,25.3,N/A,,Clear,180,2012-11-12 20:55:00
4:15 PM,67.1,40.6,38,30.09,10.0,South,13.8,25.3,N/A,,Clear,180,2012-11-12 21:15:00
4:35 PM,67.1,41.0,39,30.08,10.0,South,15.0,25.3,N/A,,Clear,180,2012-11-12 21:35:00
4:55 PM,67.1,41.5,39,30.08,10.0,South,13.8,25.3,N/A,,Clear,170,2012-11-12 21:55:00
5:15 PM,67.1,42.8,41,30.08,10.0,South,10.4,21.9,N/A,,Clear,180,2012-11-12 22:15:00
5:35 PM,67.1,44.4,44,30.07,10.0,South,8.1,16.1,N/A,,Clear,180,2012-11-12 22:35:00
5:55 PM,66.6,45.3,46,30.06,10.0,South,9.2,16.1,N/A,,Clear,170,2012-11-12 22:55:00
6:15 PM,66.9,44.2,44,30.05,10.0,South,12.7,23.0,N/A,,Clear,180,2012-11-12 23:15:00
6:35 PM,66.7,42.8,42,30.03,10.0,South,21.9,32.2,N/A,,Clear,170,2012-11-12 23:35:00
6:55 PM,64.4,40.1,41,30.02,10.0,South,17.3,29.9,N/A,,Clear,170,2012-11-12 23:55:00
7:15 PM,64.4,39.7,40,30.03,10.0,South,11.5,20.7,N/A,,Clear,170,2012-11-13 00:15:00
7:35 PM,64.4,37.4,37,30.03,10.0,South,11.5,21.9,N/A,,Clear,180,2012-11-13 00:35:00
7:55 PM,64.4,38.3,38,30.02,10.0,South,16.1,28.8,N/A,,Clear,180,2012-11-13 00:55:00
8:15 PM,61.9,39.6,44,30.00,10.0,South,26.5,40.3,N/A,,Clear,170,2012-11-13 01:15:00
8:55 PM,61.7,42.8,50,30.00,10.0,South,23.0,38.0,N/A,,Clear,170,2012-11-13 01:55:00
9:15 PM,61.9,44.2,52,30.00,10.0,South,18.4,34.5,N/A,,Clear,180,2012-11-13 02:15:00
9:35 PM,61.0,44.6,55,30.01,10.0,South,16.1,28.8,N/A,,Clear,180,2012-11-13 02:35:00
9:55 PM,60.6,45.0,56,30.00,10.0,South,20.7,32.2,N/A,,Clear,170,2012-11-13 02:55:00
10:15 PM,60.3,45.5,58,30.00,10.0,South,17.3,27.6,N/A,,Clear,180,2012-11-13 03:15:00
10:35 PM,60.1,45.9,59,29.99,10.0,South,13.8,27.6,N/A,,Scattered Clouds,170,2012-11-13 03:35:00
10:55 PM,60.8,46.6,59,29.98,10.0,South,15.0,33.4,N/A,,Mostly Cloudy,180,2012-11-13 03:55:00
11:15 PM,61.0,47.1,60,29.97,10.0,South,12.7,33.4,N/A,,Scattered Clouds,180,2012-11-13 04:15:00
11:35 PM,60.8,47.1,61,29.95,10.0,South,21.9,28.8,N/A,,Clear,180,2012-11-13 04:35:00
11:55 PM,61.7,48.0,61,29.95,10.0,South,17.3,32.2,N/A,,Scattered Clouds,180,2012-11-13 04:55:00